Regional Weather Roundup
Issued by NWS

Home | Current Version | Previous Version | Text Only | Print | Product List | Glossary Off
Versions: 1 2 3 4 5 6 7 8 9 10 11 12 13 14 15 16 17 18 19 20 21 22 23 24 25 26 27 28 29 30 31 32 33 34 35 36 37 38 39 40 41 42 43 44 45 46 47 48 49 50

000
ASUS43 KDMX 281207
RWRIA

WEATHER ROUNDUP FOR IOWA
NATIONAL WEATHER SERVICE DES MOINES IA
700 AM CDT SAT MAR 28 2015

NOTE: "FAIR" INDICATES FEW OR NO CLOUDS BELOW 12,000 FEET WITH NO
SIGNIFICANT WEATHER AND/OR OBSTRUCTIONS TO VISIBILITY.

* - THESE STATIONS ARE NOT NWS STATIONS...THUS NOT UNDER NWS
QUALITY CONTROL.  THEY ALSO DO NOT REPORT WEATHER SUCH
AS PRECIPITATION OR FOG.

IAZ001>003-012>014-020>022-031>034-043>046-281300-
   NORTHWEST IOWA

CITY           SKY/WX    TMP DP  RH WIND       PRES   REMARKS
CARROLL *      CLOUDY    30  27  86 SE6       30.16R WCI  24
CHEROKEE *     CLOUDY    30  28  93 SE5       30.14S WCI  25
DENISON *      CLOUDY    30  30 100 E6        30.13R WCI  24
LE MARS *      CLOUDY    32  27  80 SE7       30.13S WCI  26
ORANGE CITY *  CLEAR     28  25  86 SE5       30.12R WCI  23
SHELDON *      CLOUDY    28  28 100 SE8       30.12R WCI  20
SIOUX CITY     CLOUDY    32  26  78 SE10      30.12R WCI  24
6HR MIN TEMP:  32; 6HR MAX TEMP:  34;

SPENCER        CLOUDY    30  25  81 SE5       30.15R WCI  25
6HR MIN TEMP:  28; 6HR MAX TEMP:  30; 6HR PCP: TRACE;

STORM LAKE *   CLOUDY    28  27  93 SE9       30.14S WCI  20
$$

IAZ055>058-069>071-079>083-090>094-281300-
   SOUTHWEST IOWA

CITY           SKY/WX    TMP DP  RH WIND       PRES   REMARKS
ATLANTIC *     CLOUDY    34  23  64 E5        30.15S HAZE    WCI  30
AUDUBON *      CLEAR     30  25  80 E6        30.15S WCI  24
CLARINDA *     CLOUDY    34  28  80 E7        30.16S WCI  28
COUNCIL BLFS * CLOUDY    32  28  86 SE10      30.12R WCI  24
CRESTON *      CLOUDY    32  21  64 SE9       30.16R WCI  24
HARLAN  *      MOCLDY    30  30 100 CALM      30.17S
LAMONI         CLOUDY    32  22  66 SE7       30.17R WCI  26
6HR MIN TEMP:  32; 6HR MAX TEMP:  36;

RED OAK *      CLOUDY    34  28  80 E5        30.15R WCI  30
SHENANDOAH *   CLOUDY    34  28  80 SE9       30.15R WCI  26
$$

IAZ047>049-059>061-072>074-084-281300-
   CENTRAL IOWA

CITY           SKY/WX    TMP DP  RH WIND       PRES   REMARKS
AMES           CLOUDY    28  16  60 SE5       30.20R WCI  23
6HR MIN TEMP:  27; 6HR MAX TEMP:  30;

ANKENY *       CLOUDY    28  18  64 SE5       30.20R WCI  23
CHARITON *     CLOUDY    30  16  55 SE7       30.19R WCI  23
DES MOINES     CLOUDY    32  13  45 SE6       30.20R WCI  26
6HR MIN TEMP:  32; 6HR MAX TEMP:  34;

GRINNELL*      PTCLDY    21  16  79 E7        30.22R WCI  13
KNOXVILLE *    CLOUDY    28  14  54 SE6       30.19R WCI  22
MARSHALLTOWN   CLOUDY    19  14  81 E6        30.20R WCI  11
6HR MIN TEMP:  17; 6HR MAX TEMP:  26;

PELLA *        PTCLDY    26  19  76 SE5       30.23R WCI  20
PERRY *        CLOUDY    32  21  64 E7        30.18R WCI  26
$$

IAZ004>006-015-016-023>025-035-036-281300-
   NORTH CENTRAL IOWA

CITY           SKY/WX    TMP DP  RH WIND       PRES   REMARKS
ALGONA *       CLOUDY    28  21  74 SE7       30.19R WCI  21
CLARION *      CLOUDY    27  19  74 SE10      30.19R WCI  17
ESTHERVILLE    CLOUDY    28  22  78 SE10      30.16R WCI  19
6HR MIN TEMP:  28; 6HR MAX TEMP:  29;

FORT DODGE *   CLOUDY    28  16  59 SE5       30.18R WCI  23
MASON CITY     MOCLDY    23  16  74 SE7       30.21R WCI  15
6HR MIN TEMP:  22; 6HR MAX TEMP:  26;

FOREST CITY *  CLOUDY    27  19  74 SE5       30.19S WCI  21
IOWA FALLS *     N/A     23  17  79 E3        30.21R
$$

IAZ007>011-017>019-026>030-037>042-050>054-066-281300-
   NORTHEAST IOWA

CITY           SKY/WX    TMP DP  RH WIND       PRES   REMARKS
CEDAR RAPIDS   CLEAR     21  12  68 S5        30.23R WCI  15
6HR MIN TEMP:  20; 6HR MAX TEMP:  22;

CHARLES CITY * CLOUDY    23  14  68 SE6       30.23R WCI  16
CLINTON *      CLEAR     19  14  79 SE3       30.31R
DECORAH *      CLEAR     16   9  73 CALM      30.23R
DUBUQUE        PTCLDY    18  13  80 SW3       30.25R
6HR MIN TEMP:  17; 6HR MAX TEMP:  22;

MONTICELLO *   MOCLDY    19  14  79 E5        30.26R WCI  13
OELWEIN *      CLOUDY    21  14  73 E6        30.24R WCI  14
WATERLOO       CLOUDY    19  15  84 E5        30.23R WCI  12
6HR MIN TEMP:  17; 6HR MAX TEMP:  24;

$$

IAZ064-065-067-068-078-281300-
   EAST CENTRAL IOWA

CITY           SKY/WX    TMP DP  RH WIND       PRES   REMARKS
DAVENPORT      CLEAR     18  12  77 SE7       30.27R WCI   9
6HR MIN TEMP:  18; 6HR MAX TEMP:  24;

IOWA CITY      CLEAR     21  13  71 SE3       30.27R
6HR MIN TEMP:  20; 6HR MAX TEMP:  28;

MT. PLEASANT * PTCLDY    22  15  74 SE6       30.25R WCI  15
MUSCATINE *    CLEAR     21  14  73 CALM      30.28R
QUAD CITIES    CLEAR     18  13  80 E6        30.28R WCI  10
6HR MIN TEMP:  16; 6HR MAX TEMP:  24;

$$

IAZ062-063-075>077-085>089-095>099-281300-
   SOUTHEAST IOWA

CITY           SKY/WX    TMP DP  RH WIND       PRES   REMARKS
BURLINGTON     PTCLDY    24  16  71 SE6       30.25R WCI  17
6HR MIN TEMP:  24; 6HR MAX TEMP:  28;

FAIRFIELD *    MOCLDY    23  16  74 SE7       30.24R WCI  15
FORT MADISON * PTCLDY    27  18  69 SE7       30.26R WCI  19
KEOKUK *       CLOUDY    27  19  74 E6        30.25R WCI  20
OSKALOOSA *    MOCLDY    23  16  75 E6        30.23R WCI  15
CENTERVILLE *  CLOUDY    28  16  59 SE7       30.21R WCI  21
OTTUMWA        MOCLDY    22  15  75 SE7       30.22R WCI  13
6HR MIN TEMP:  22; 6HR MAX TEMP:  27;

WASHINGTON *   PTCLDY    21  18  86 SE6       30.25R WCI  14
$$

ABBREVIATIONS USED IN REMARKS
   TC - TEMPERATURES IN CELSIUS
  WCI - WIND CHILL INDEX
   HX - HEAT INDEX
  VSB - VISIBILITY
$$




USA.gov is the U.S. government's official web portal to all federal, state and local government web resources and services.